Location: Caltech
(34.1382°N, 118.1253°W)
Time: 00:47:38
(UTC-07:00)

PCSat - Visible Passes

Search period start: 01 August 2014 00:00
Search period end: 11 August 2014 00:00
Orbit: 786 x 796 km, 67.1° (Epoch: 31 July)

Date Brightness Start Highest point End Pass type
(mag) Time Alt. Az. Time Alt. Az. Time Alt. Az.
01 Aug 11.5 00:15:28 24° NNE 00:15:28 24° NNE 00:17:32 10° NNE visible
01 Aug 12.2 01:56:11 11° NW 01:56:19 11° NW 01:57:55 10° NNW visible
01 Aug 11.6 23:45:20 20° NNE 23:45:20 20° NNE 23:46:58 10° NNE visible
02 Aug 12.0 01:26:02 15° NW 01:26:02 15° NW 01:28:39 10° NNW visible
02 Aug 11.7 23:15:08 16° NE 23:15:08 16° NE 23:16:17 10° NE visible
03 Aug 11.8 00:55:50 20° NW 00:55:50 20° NW 00:58:46 10° N visible
03 Aug 11.8 22:44:51 13° NE 22:44:51 13° NE 22:45:29 10° NE visible
04 Aug 11.5 00:25:33 25° NNW 00:25:33 25° NNW 00:28:40 10° N visible
04 Aug 11.9 22:14:28 10° NE 22:14:28 10° NE 22:14:29 10° NE visible
04 Aug 11.2 23:55:09 30° NNW 23:55:09 30° NNW 23:58:25 10° N visible
05 Aug 10.9 23:24:38 36° N 23:24:38 36° N 23:28:04 10° NNE visible
06 Aug 10.4 22:53:56 44° NNE 22:53:56 44° NNE 22:57:37 10° NNE visible
07 Aug 12.4 00:35:58 10° NW 00:36:30 10° NW 00:37:01 10° NW visible
07 Aug 9.9 22:22:56 53° NE 22:22:56 53° NE 22:27:05 10° NNE visible
08 Aug 12.2 00:03:34 12° WNW 00:05:40 14° NW 00:08:28 10° NNW visible
08 Aug 9.6 21:51:26 53° E 21:51:26 53° E 21:56:26 10° NE visible
08 Aug 11.9 23:32:01 13° W 23:34:53 19° NW 23:38:42 10° N visible
09 Aug 10.0 21:18:39 27° SSE 21:20:42 38° ESE 21:25:40 10° NE visible
09 Aug 11.5 22:59:42 10° WSW 23:04:10 26° NW 23:08:39 10° N visible
10 Aug 10.4 20:45:51 10° SSE 20:50:17 26° ESE 20:54:43 10° NE visible
10 Aug 11.0 22:28:34 10° WSW 22:33:29 35° WNW 22:38:26 10° N visible
